Location: Newark
(34.9500°N, 139.9667°E)
Time: 08:48:40
(UTC+00:00)

S-56A Canister/Altair - Visible Passes

Search period start: 07 December 2019 00:00
Search period end: 17 December 2019 00:00
Orbit: 633 x 2499 km, 38.9° (Epoch: 06 December)

Date Brightness Start Highest point End Pass type
(mag) Time Alt. Az. Time Alt. Az. Time Alt. Az.
07 Dec 10.0 08:06:18 10° WNW 08:17:42 49° SW 08:25:24 10° SSE visible
08 Dec 11.1 09:42:59 10° W 09:47:34 14° SW 09:51:28 10° SSW visible
09 Dec 11.0 09:08:08 10° W 09:14:56 19° SW 09:20:23 10° SSW visible
10 Dec 11.0 08:33:39 10° W 08:42:14 24° SW 08:48:49 10° S visible
11 Dec 11.0 07:59:22 10° WNW 08:09:27 29° SW 08:16:59 10° S visible
11 Dec 11.9 20:58:43 10° SSE 21:05:50 18° SE 21:14:01 10° E visible
12 Dec 11.9 20:27:42 10° SSE 20:32:55 14° ESE 20:38:44 10° E visible
13 Dec 11.9 19:59:03 10° SE 20:00:04 10° ESE 20:01:05 10° ESE visible
14 Dec 11.9 08:30:27 10° WSW 08:33:29 11° WSW 08:36:18 10° SW visible
15 Dec 11.8 07:54:20 10° W 08:00:42 15° WSW 08:06:12 10° SSW visible
15 Dec 11.2 20:48:06 10° SSW 20:57:01 33° SE 21:08:36 10° ENE visible
16 Dec 11.2 20:16:05 10° S 20:24:04 27° SE 20:34:22 10° E visible
